This demonstration page uses our WeatherBlox Daily Observations layout. Learn more.

36.17497, -115.13722

Hourly Observations for May 16, 2018

Temp ( °F °C ) Dew Point ( °F °C ) Humidity (%) Winds ( mph kmh ) Pressure ( in mb ) Visibility ( mi km ) Precip ( " mm )
12:53 am 00:53 Clear 75 23.9 31 -0.6 20 20 Calm 29.83 1010 10 16.09344 0 0
1:53 am 01:53 Clear 71 21.7 33 0.6 25 25 Calm 29.83 1010 10 16.09344 0 0
2:53 am 02:53 Clear 69 20.6 33 0.6 26 26 Calm 29.83 1010 10 16.09344 0 0
3:53 am 03:53 Clear 67 19.4 34 1.1 30 30 N 5 7 29.85 1011 10 16.09344 0 0
4:53 am 04:53 Clear 67 19.4 31 -0.6 26 26 NW 6 9 29.85 1011 10 16.09344 0 0
5:53 am 05:53 Sunny 64 17.8 33 0.6 32 32 N 5 7 29.85 1011 10 16.09344 0 0
6:53 am 06:53 Sunny 69 20.6 32 0 25 25 NNW 3 6 29.85 1011 10 16.09344 0 0
7:53 am 07:53 Sunny 74 23.3 28 -2.2 18 18 Calm 29.85 1011 10 16.09344 0 0
8:53 am 08:53 Sunny 77 25 26 -3.3 15 15 E 7 11 29.85 1011 10 16.09344 0 0
9:53 am 09:53 Sunny 81 27.2 24 -4.4 12 12 N 5 7 29.85 1011 10 16.09344 0 0
10:53 am 10:53 Sunny 84 28.9 23 -5 10 10 E 8 13 29.85 1011 10 16.09344 0 0
11:53 am 11:53 Sunny 88 31.1 14 -10 6 6 SSW 21 33 29.83 1010 10 16.09344 0 0
12:53 pm 12:53 Sunny 89 31.7 12 -11.1 5 5 SW 20 31 29.83 1010 10 16.09344 0 0
1:53 pm 13:53 Sunny 90 32.2 2 -16.7 3 3 SW 20 31 29.8 1009 10 16.09344 0 0
2:53 pm 14:53 Sunny 90 32.2 4 -15.6 4 4 WSW 18 30 29.8 1009 10 16.09344 0 0
3:53 pm 15:53 Sunny 90 32.2 7 -13.9 4 4 SW 21 33 29.77 1008 10 16.09344 0 0
4:53 pm 16:53 Sunny 90 32.2 5 -15 4 4 WSW 20 31 29.77 1008 10 16.09344 0 0
5:53 pm 17:53 Sunny 88 31.1 5 -15 4 4 WSW 18 30 29.74 1007 10 16.09344 0 0
6:53 pm 18:53 Sunny 86 30 6 -14.4 5 5 WSW 18 30 29.74 1007 10 16.09344 0 0
7:53 pm 19:53 Clear 84 28.9 9 -12.8 6 6 SW 14 22 29.74 1007 10 16.09344 0 0
8:53 pm 20:53 Clear 82 27.8 11 -11.7 7 7 W 8 13 29.74 1007 10 16.09344 0 0
9:53 pm 21:53 Clear 81 27.2 10 -12.2 7 7 WSW 6 9 29.74 1007 10 16.09344 0 0
10:53 pm 22:53 Clear 79 26.1 15 -9.4 9 9 WSW 12 19 29.74 1007 10 16.09344 0 0
11:53 pm 23:53 Clear 79 26.1 15 -9.4 9 9 W 21 33 29.74 1007 10 16.09344 0 0

Powered by AerisWeather